Location: Unspecified
(0.0000°N, 0.0000°E)
Time: 14:56:41
(UTC+00:00)

deb Midas V - Pass Details

Date: 19 April 2026
Orbit: 2771 x 3389 km, 86.6° (Epoch: 16 May)

Event Time Altitude Azimuth Distance (km) Brightness Sun altitude
Rises 18:57:48 0° 351° (N) 7,362 ? -14.4°
Reaches altitude 10° 19:02:11 10° 347° (NNW) 6,303 ? -15.5°
Maximum altitude 19:18:52 56° 274° (W) 3,588 ? -19.5°
Drops below altitude 10° 19:34:25 10° 198° (SSW) 5,848 ? -23.3°
Sets 19:38:24 0° 193° (SSW) 6,807 ? -24.3°
